Shemya, AK

7:31 PM HDT on March 22, 2017 (GMT -0900)
Eareckson Air Station

Weather History for PASY - November, 2011

Change the Weather History Date:

Thursday, November 10, 2011

  Actual Average Record
Temperature  
Mean Temperature 40 °F -  
Max Temperature 42 °F 40 °F 47 °F (1949)
Min Temperature 37 °F 34 °F 26 °F (1950)
Degree Days  
Heating Degree Days 26    
Moisture  
Dew Point 34 °F    
Average Humidity 80    
Maximum Humidity 93    
Minimum Humidity 70    
Precipitation  
Precipitation 0.00 in - - ()
Sea Level Pressure  
Sea Level Pressure 29.56 in    
Wind  
Wind Speed 18 mph (SSW)    
Max Wind Speed 25 mph    
Max Gust Speed 29 mph    
Visibility 10 miles    
Events Rain    
Averages and records for this station are not official NWS values.
T = Trace of Precipitation, MM = Missing Value Source: NWS Daily Summary

Daily Weather History Graph

Daily Weather History Graph

Search for Another Location

Airport or City:

Trip Planner

Search our weather history database for the weather conditions in past years. The results will help you decide how hot, cold, wet, or windy it might be!

Date:

Astronomy

Nov. 09, 2011 Rise Set
Actual Time 9:35 AM HST 6:38 PM HST
Civil Twilight 8:57 AM HST 7:16 PM HST
Nautical Twilight 8:16 AM HST 7:57 PM HST
Astronomical Twilight 7:36 AM HST 8:37 PM HST
Moon 6:25 PM HST (11/10) 9:53 AM HST (11/10)
Length of Visible Light 10h 18m
Length of Day
9h 03m
Full, 100% of the Moon is Illuminated
Nov 10
Full
Nov 18
Last Quarter
Nov 24
New
Dec 1
First Quarter
Dec 10
Full

Hourly Weather History & Observations

Time (HST) Temp. Windchill Dew Point Humidity Pressure Visibility Wind Dir Wind Speed Gust Speed Precip Events Conditions
12:40 AM 39.2 °F 28.7 °F 32.0 °F 75% 29.85 in 10.0 mi South 23.0 mph 28.8 mph N/A   Overcast
12:49 AM 39.2 °F 28.7 °F 32.0 °F 75% 29.84 in 10.0 mi South 23.0 mph - N/A Rain Light Rain
12:56 AM 39.9 °F 30.2 °F 32.0 °F 73% 29.84 in 10.0 mi South 20.7 mph - N/A Rain Light Rain
1:56 AM 39.0 °F 29.3 °F 33.1 °F 79% 29.83 in 10.0 mi South 19.6 mph - N/A   Scattered Clouds
2:56 AM 39.0 °F 28.3 °F 33.1 °F 79% 29.79 in 10.0 mi South 24.2 mph - N/A   Partly Cloudy
3:56 AM 39.9 °F 29.2 °F 33.1 °F 77% 29.77 in 10.0 mi South 25.3 mph - N/A   Partly Cloudy
4:56 AM 39.9 °F 29.7 °F 34.0 °F 79% 29.74 in 10.0 mi South 23.0 mph - N/A Rain Light Rain
5:56 AM 39.9 °F 29.7 °F 34.0 °F 79% 29.72 in 10.0 mi South 23.0 mph - N/A   Scattered Clouds
6:56 AM 39.0 °F 29.3 °F 33.1 °F 79% 29.70 in 10.0 mi South 19.6 mph - N/A   Partly Cloudy
7:56 AM 39.9 °F 30.8 °F 33.1 °F 77% 29.68 in 10.0 mi South 18.4 mph - N/A   Scattered Clouds
8:56 AM 39.0 °F 29.0 °F 34.0 °F 82% 29.66 in 10.0 mi South 20.7 mph - N/A   Mostly Cloudy
9:56 AM 39.0 °F 30.6 °F 33.1 °F 79% 29.64 in 10.0 mi South 15.0 mph - N/A   Overcast
10:56 AM 39.0 °F 31.4 °F 34.0 °F 82% 29.62 in 10.0 mi South 12.7 mph - N/A   Partly Cloudy
11:56 AM 39.9 °F 31.8 °F 34.0 °F 79% 29.58 in 10.0 mi South 15.0 mph - N/A Rain Light Rain
12:28 PM 39.2 °F 31.2 °F 35.6 °F 87% 29.56 in 10.0 mi SSE 13.8 mph - N/A   Overcast
12:42 PM 41.0 °F 33.1 °F 33.8 °F 76% 29.55 in 10.0 mi South 15.0 mph - N/A   Mostly Cloudy
12:56 PM 41.0 °F 33.5 °F 34.0 °F 76% 29.55 in 10.0 mi South 13.8 mph - N/A   Scattered Clouds
1:22 PM 42.8 °F 35.4 °F 33.8 °F 70% 29.53 in 10.0 mi South 15.0 mph - N/A   Mostly Cloudy
1:56 PM 41.0 °F 33.9 °F 32.0 °F 70% 29.51 in 10.0 mi SSW 12.7 mph - N/A   Mostly Cloudy
2:56 PM 41.0 °F 34.3 °F 33.1 °F 73% 29.47 in 10.0 mi South 11.5 mph - N/A   Clear
3:56 PM 39.9 °F 33.4 °F 34.0 °F 79% 29.44 in 10.0 mi SSW 10.4 mph - N/A   Mostly Cloudy
4:18 PM 41.0 °F 34.7 °F 35.6 °F 81% 29.43 in 10.0 mi SW 10.4 mph - N/A   Mostly Cloudy
4:25 PM 41.0 °F 35.2 °F 33.8 °F 76% 29.43 in 10.0 mi SW 9.2 mph - N/A   Partly Cloudy
4:56 PM 39.9 °F 33.4 °F 34.0 °F 79% 29.42 in 10.0 mi WSW 10.4 mph - N/A   Clear
5:56 PM 39.0 °F 32.3 °F 34.0 °F 82% 29.41 in 10.0 mi SW 10.4 mph - N/A   Clear
6:56 PM 37.9 °F 30.0 °F 34.0 °F 86% 29.40 in 10.0 mi WSW 12.7 mph - N/A   Partly Cloudy
7:56 PM 39.0 °F 30.3 °F 34.0 °F 82% 29.39 in 10.0 mi WSW 16.1 mph - N/A   Scattered Clouds
8:56 PM 39.0 °F 30.3 °F 36.0 °F 89% 29.38 in 10.0 mi WSW 16.1 mph - N/A   Mostly Cloudy
9:56 PM 37.9 °F 28.5 °F 35.1 °F 89% 29.38 in 10.0 mi WSW 17.3 mph - N/A   Partly Cloudy
10:12 PM 39.2 °F 30.5 °F 35.6 °F 87% 29.37 in 10.0 mi West 16.1 mph - N/A   Mostly Cloudy
10:39 PM 37.4 °F 29.3 °F 35.6 °F 93% 29.38 in 10.0 mi West 12.7 mph - N/A   Overcast
10:56 PM 39.0 °F 31.8 °F 34.0 °F 82% 29.38 in 10.0 mi West 11.5 mph - N/A   Overcast
11:56 PM 37.0 °F 28.9 °F 32.0 °F 82% 29.39 in 10.0 mi West 12.7 mph - N/A   Mostly Cloudy